W4SNA-2 Weather Reports


time (UTC)temp
C
wind
direction
speed
KPH
gust
KPH
rain 1hr
cm
rain 24hr
cm
rain mn
cm
humidity
%
barometer
mb
20260507191925 11 345 11.3 19.3 0.03 0.33 0.08 100 1011.6
20260507191425 11 336 11.3 27.4 0.03 0.33 0.08 100 1011.6
20260507190925 11 342 14.5 27.4 0.03 0.33 0.08 100 1011.5
20260507190425 11 343 16.1 24.1 0.03 0.33 0.08 100 1011.5
20260507190134 11 341 4.8 19.3 0.03 0.33 0.08 100 1011.7
20260507185925 11 341 4.8 19.3 0.03 0.33 0.08 100 1011.7
20260507185425 11 343 1.6 20.9 0.03 0.33 0.08 100 1011.6
20260507184925 11 340 9.7 24.1 0.03 0.33 0.08 100 1011.7
20260507184425 11 341 12.9 27.4 0.03 0.33 0.08 100 1011.6
20260507183927 11 346 14.5 27.4 0.00 0.30 0.05 100 1011.8
20260507183206 11 346 9.7 27.4 0.00 0.30 0.05 100 1011.7
20260507182704 11 346 16.1 29.0 0.00 0.30 0.05 100 1011.6
20260507182204 11 343 16.1 29.0 0.00 0.30 0.05 100 1011.7
20260507181704 11 349 12.9 29.0 0.00 0.30 0.05 100 1011.7
20260507181205 11 0 0.0 27.4 0.00 0.30 0.05 100 1011.7
20260507180704 11 359 1.6 27.4 0.00 0.30 0.05 100 1011.6
20260507180204 11 360 12.9 22.5 0.05 0.30 0.05 100 1011.6
20260507175705 11 10 11.3 20.9 0.05 0.33 0.05 100 1011.6
20260507175204 12 347 11.3 17.7 0.05 0.33 0.05 100 1011.8
20260507174704 12 346 8.0 20.9 0.05 0.33 0.05 100 1011.8
20260507174205 12 11 9.7 20.9 0.05 0.33 0.05 100 1011.9
20260507173204 12 1 3.2 12.9 0.05 0.36 0.05 100 1011.9
20260507172704 12 346 1.6 14.5 0.05 0.36 0.05 100 1011.9
20260507172204 12 340 3.2 16.1 0.05 0.36 0.05 100 1012.0
20260507171705 12 341 4.8 17.7 0.05 0.36 0.05 100 1011.9
20260507171206 12 328 8.0 19.3 0.05 0.36 0.05 100 1011.9
20260507170704 12 350 4.8 19.3 0.05 0.36 0.05 100 1011.9
20260507170204 12 352 8.0 19.3 0.00 0.30 0.00 100 1011.9
20260507165706 12 3 9.7 25.7 0.00 0.30 0.00 100 1011.8
20260507165205 12 333 6.4 25.7 0.00 0.30 0.00 100 1011.8
20260507164705 13 340 9.7 19.3 0.00 0.30 0.00 100 1011.7
20260507164204 13 360 8.0 20.9 0.00 0.30 0.00 100 1011.6
20260507163704 13 340 11.3 20.9 0.00 0.30 0.00 100 1011.4
20260507163204 13 347 8.0 16.1 0.00 0.30 0.00 100 1011.5
20260507162626 13 348 17.7 29.0 0.00 0.30 0.00 100 1011.6
20260507162031 13 336 8.0 19.3 0.00 0.30 0.00 100 1011.7
20260507161016 13 353 8.0 19.3 0.00 0.30 0.00 100 1011.8
20260507155619 13 346 6.4 12.9 0.00 0.33 0.30 100 1012.0
20260507155123 13 345 1.6 6.4 0.00 0.33 0.30 100 1012.1
20260507154619 13 0 0.0 6.4 0.00 0.33 0.30 100 1012.0
20260507154121 13 0 0.0 8.0 0.00 0.33 0.30 100 1011.9
20260507153618 13 345 3.2 8.0 0.00 0.33 0.30 100 1011.8
20260507153118 13 0 0.0 4.8 0.00 0.33 0.30 100 1011.8
20260507152618 13 0 0.0 8.0 0.00 0.33 0.30 100 1011.8
20260507152118 13 342 3.2 9.7 0.00 0.33 0.30 100 1011.9
20260507151618 13 0 0.0 17.7 0.00 0.33 0.30 100 1011.9
20260507151126 13 340 3.2 17.7 0.00 0.33 0.30 100 1012.0
20260507150619 13 340 3.2 9.7 0.00 0.33 0.30 100 1012.1
20260507150118 13 0 0.0 14.5 0.00 0.33 0.30 100 1012.2
20260507145618 13 0 0.0 16.1 0.00 0.33 0.30 100 1012.1
20260507145118 14 338 4.8 17.7 0.00 0.33 0.30 99 1012.1
20260507144619 14 335 8.0 17.7 0.00 0.33 0.30 100 1012.0
20260507144119 15 322 6.4 17.7 0.00 0.33 0.30 100 1012.2
20260507143619 16 0 0.0 0.0 0.00 0.33 0.30 100 1012.1
20260507143118 16 0 0.0 0.0 0.00 0.33 0.30 100 1012.0
20260507142618 15 0 0.0 0.0 0.00 0.33 0.30 100 1011.9
20260507142118 16 0 0.0 0.0 0.00 0.33 0.30 100 1011.7
20260507141620 15 0 0.0 0.0 0.00 0.33 0.30 100 1011.8
20260507141118 15 0 0.0 0.0 0.00 0.33 0.30 100 1011.9
20260507140620 15 0 0.0 0.0 0.00 0.33 0.30 100 1011.7
20260507140118 15 0 0.0 0.0 0.00 0.33 0.30 100 1011.6
20260507135706 15 0 0.0 0.0 0.00 0.33 0.30 100 1011.5
20260507135620 15 0 0.0 0.0 0.00 0.33 0.30 100 1011.5
20260507134935 15 0 0.0 0.0 0.00 0.33 0.30 100 1011.6
20260507134436 15 0 0.0 0.0 0.00 0.33 0.30 100 1011.8
20260507133935 16 0 0.0 0.0 0.00 0.33 0.30 100 1011.7
20260507133435 16 0 0.0 0.0 0.00 0.33 0.30 100 1011.7
20260507132939 16 0 0.0 0.0 0.00 0.33 0.30 100 1011.7
20260507132435 16 0 0.0 0.0 0.00 0.33 0.30 100 1011.9
20260507131936 16 0 0.0 0.0 0.00 0.33 0.30 100 1011.7
20260507131437 16 0 0.0 0.0 0.00 0.33 0.30 100 1012.0
20260507130937 16 0 0.0 0.0 0.00 0.33 0.30 100 1012.1
20260507130435 15 0 0.0 0.0 0.00 0.33 0.30 100 1012.5
20260507125935 15 0 0.0 0.0 0.03 0.33 0.30 100 1012.7
20260507125435 15 0 0.0 0.0 0.03 0.33 0.30 100 1012.7
20260507124935 15 0 0.0 0.0 0.03 0.33 0.30 100 1012.6
20260507124441 15 0 0.0 0.0 0.03 0.33 0.30 100 1012.5
20260507123941 15 0 0.0 0.0 0.03 0.33 0.30 100 1012.7
20260507123437 15 0 0.0 0.0 0.03 0.33 0.30 100 1013.1
20260507122935 15 0 0.0 1.6 0.03 0.33 0.30 100 1013.0
20260507122435 15 0 0.0 1.6 0.03 0.33 0.30 100 1013.0
20260507121935 15 0 0.0 0.0 0.03 0.33 0.30 100 1013.1
20260507121438 15 0 0.0 0.0 0.03 0.33 0.30 100 1013.2
20260507120935 15 0 0.0 11.3 0.03 0.33 0.30 100 1013.2
20260507120435 15 0 0.0 11.3 0.03 0.33 0.30 100 1012.7
20260507115936 15 0 0.0 4.8 0.00 0.30 0.28 100 1012.6
20260507115436 15 0 0.0 0.0 0.00 0.30 0.28 100 1012.7
20260507114936 15 0 0.0 0.0 0.00 0.30 0.28 100 1012.4
20260507114438 15 0 0.0 3.2 0.00 0.30 0.28 100 1012.6
20260507113935 15 0 0.0 3.2 0.00 0.30 0.28 100 1012.7
20260507113436 15 0 0.0 0.0 0.00 0.30 0.28 100 1012.5
20260507112935 15 0 0.0 0.0 0.00 0.30 0.28 100 1012.6
20260507112435 15 0 0.0 0.0 0.00 0.30 0.28 100 1012.6
20260507111939 15 0 0.0 0.0 0.00 0.30 0.28 100 1012.3
20260507111435 15 0 0.0 0.0 0.00 0.30 0.28 100 1012.1
20260507110940 15 0 0.0 3.2 0.00 0.30 0.28 100 1012.0
20260507110439 15 0 0.0 4.8 0.00 0.30 0.28 100 1012.2
20260507110032 15 0 0.0 4.8 0.00 0.30 0.28 100 1012.4
20260507105935 15 0 0.0 4.8 0.00 0.30 0.28 100 1012.4
20260507105436 15 0 0.0 0.0 0.00 0.30 0.28 100 1012.4
20260507104936 15 0 0.0 0.0 0.00 0.30 0.28 100 1012.1
20260507104436 15 0 0.0 0.0 0.00 0.30 0.28 100 1012.1
20260507103936 15 0 0.0 8.0 0.00 0.30 0.28 100 1012.1
20260507103436 15 0 0.0 8.0 0.00 0.30 0.28 100 1012.3
20260507102938 15 0 0.0 8.0 0.00 0.30 0.28 100 1012.4
20260507102515 15 0 0.0 8.0 0.00 0.30 0.28 100 1012.3
20260507102435 15 0 0.0 8.0 0.00 0.30 0.28 100 1012.3
20260507101935 15 0 0.0 0.0 0.00 0.30 0.28 100 1012.2
20260507101437 15 0 0.0 0.0 0.00 0.30 0.28 100 1011.9
20260507100935 15 0 0.0 0.0 0.00 0.30 0.28 99 1012.0
20260507100435 15 0 0.0 3.2 0.00 0.30 0.28 100 1012.0
20260507095935 15 0 0.0 3.2 0.00 0.30 0.28 99 1011.9
20260507095435 15 0 0.0 3.2 0.00 0.30 0.28 100 1012.0
20260507094936 15 0 0.0 8.0 0.00 0.30 0.28 100 1012.0
20260507094437 15 0 0.0 8.0 0.00 0.30 0.28 100 1011.9
20260507093820 16 0 0.0 11.3 0.00 0.30 0.28 100 1011.8
20260507093320 16 0 0.0 11.3 0.00 0.30 0.28 100 1011.8
20260507092319 15 277 1.6 6.4 0.00 0.30 0.28 100 1011.6
20260507091819 15 0 0.0 8.0 0.00 0.30 0.28 100 1011.5
20260507091319 15 0 0.0 8.0 0.00 0.30 0.28 100 1011.7
20260507090819 15 321 1.6 9.7 0.00 0.30 0.28 100 1011.9
20260507090319 15 321 3.2 17.7 0.00 0.30 0.28 100 1012.0
20260507085826 15 321 3.2 17.7 0.00 0.30 0.28 100 1012.4
20260507085319 15 321 1.6 16.1 0.00 0.30 0.28 100 1012.5
20260507084819 15 321 3.2 20.9 0.00 0.30 0.28 100 1012.3
20260507084319 15 320 6.4 20.9 0.00 0.30 0.28 100 1012.3
20260507083819 15 319 6.4 20.9 0.00 0.30 0.28 100 1012.3
20260507083319 15 319 6.4 20.9 0.00 0.30 0.28 100 1012.3
20260507082821 15 293 1.6 20.9 0.00 0.30 0.28 100 1012.3
20260507082319 15 298 4.8 20.9 0.00 0.30 0.28 100 1012.5
20260507081819 15 317 1.6 19.3 0.00 0.30 0.28 100 1012.4
20260507081319 15 305 4.8 22.5 0.00 0.30 0.28 100 1012.3
20260507080819 15 279 6.4 22.5 0.00 0.30 0.28 100 1012.0
20260507080319 15 266 3.2 17.7 0.00 0.30 0.28 100 1012.5
20260507075821 15 276 1.6 20.9 0.00 0.30 0.28 100 1012.3
20260507075319 15 277 4.8 22.5 0.00 0.30 0.28 100 1012.2
20260507074820 15 287 8.0 24.1 0.00 0.30 0.28 100 1012.3
20260507074319 15 285 3.2 24.1 0.00 0.30 0.28 100 1012.3
20260507073819 15 271 3.2 19.3 0.00 0.30 0.28 100 1012.4
20260507073319 15 219 4.8 19.3 0.00 0.30 0.28 100 1012.1
20260507072822 15 210 3.2 14.5 0.00 0.30 0.28 100 1012.2
20260507071821 15 198 4.8 16.1 0.00 0.30 0.28 100 1012.2
20260507071319 15 207 1.6 12.9 0.00 0.30 0.28 100 1012.4
20260507070818 15 257 1.6 17.7 0.00 0.30 0.28 100 1012.5
20260507070319 15 277 1.6 17.7 0.00 0.30 0.28 100 1012.4
20260507065821 15 258 1.6 17.7 0.00 0.30 0.28 100 1012.6
20260507065319 15 0 0.0 17.7 0.00 0.30 0.28 100 1012.8
20260507064819 15 229 4.8 20.9 0.00 0.30 0.28 100 1012.7
20260507064320 15 206 4.8 25.7 0.00 0.30 0.28 100 1012.3
20260507063819 15 207 4.8 29.0 0.00 0.30 0.28 100 1012.7
20260507063318 15 204 11.3 33.8 0.00 0.30 0.28 100 1012.6
20260507062821 15 202 16.1 33.8 0.00 0.30 0.28 100 1012.5
20260507062319 15 197 9.7 29.0 0.00 0.30 0.28 100 1012.6
20260507061820 15 201 11.3 30.6 0.00 0.30 0.28 99 1012.4
20260507061319 15 194 14.5 32.2 0.00 0.30 0.28 100 1012.6
20260507060819 15 190 16.1 35.4 0.00 0.30 0.28 100 1012.7
20260507060319 15 192 19.3 37.0 0.00 0.30 0.28 100 1012.7
20260507055819 15 193 17.7 37.0 0.03 0.30 0.28 100 1013.2
20260507055319 16 197 9.7 20.9 0.03 0.30 0.28 100 1013.6
20260507054820 16 220 3.2 20.9 0.03 0.30 0.28 100 1014.0
20260507054318 16 240 1.6 14.5 0.03 0.30 0.28 100 1014.1
20260507053819 16 256 1.6 12.9 0.03 0.30 0.28 99 1014.0
20260507053319 16 274 1.6 9.7 0.03 0.30 0.28 100 1014.1
20260507052818 16 0 0.0 12.9 0.03 0.30 0.28 99 1014.4
20260507052318 16 231 1.6 19.3 0.03 0.30 0.28 99 1014.5
20260507051818 16 236 3.2 19.3 0.03 0.30 0.28 99 1014.7
20260507051318 16 201 1.6 12.9 0.03 0.30 0.28 100 1014.8
20260507050818 16 192 1.6 9.7 0.03 0.30 0.28 100 1014.7
20260507050319 16 0 0.0 9.7 0.03 0.30 0.28 100 1014.8
20260507045819 16 197 1.6 9.7 0.00 0.28 0.25 99 1014.8
20260507045319 16 211 1.6 12.9 0.00 0.28 0.25 99 1015.2
20260507044820 16 207 1.6 14.5 0.00 0.28 0.25 99 1014.9
20260507044319 16 209 4.8 16.1 0.00 0.28 0.25 99 1014.5
20260507043819 16 233 1.6 16.1 0.00 0.28 0.25 99 1014.5
20260507043318 16 0 0.0 12.9 0.00 0.28 0.25 99 1014.5
20260507042824 16 0 0.0 11.3 0.00 0.28 0.25 99 1014.6
20260507041858 16 211 1.6 16.1 0.00 0.28 0.25 99 1014.1
20260507041358 16 214 3.2 16.1 0.03 0.28 0.25 99 1014.1
20260507040858 16 203 3.2 14.5 0.05 0.28 0.25 100 1014.4
20260507040023 16 206 4.8 16.1 0.05 0.28 0.25 99 1014.2
20260507035523 16 209 4.8 12.9 0.08 0.28 0.25 99 1014.3
20260507035023 16 207 1.6 14.5 0.10 0.28 0.25 99 1014.1
20260507034523 16 208 4.8 14.5 0.10 0.28 0.25 99 1014.0
20260507034023 16 203 3.2 14.5 0.10 0.28 0.25 99 1013.8
20260507033535 16 194 6.4 14.5 0.13 0.28 0.25 99 1013.7
20260507033023 16 208 6.4 17.7 0.13 0.28 0.25 99 1013.8
20260507032523 16 189 8.0 27.4 0.13 0.28 0.25 99 1013.8
20260507032024 16 189 8.0 32.2 0.13 0.28 0.25 99 1013.1
20260507031523 16 161 17.7 32.2 0.10 0.25 0.23 99 1013.5
20260507031023 16 0 0.0 9.7 0.08 0.23 0.20 99 1015.4
20260507030523 16 0 0.0 12.9 0.08 0.23 0.20 99 1015.3
20260507030023 16 235 1.6 12.9 0.10 0.23 0.20 99 1015.1
20260507025523 17 0 0.0 17.7 0.08 0.20 0.18 99 1015.1
20260507025023 17 0 0.0 17.7 0.05 0.18 0.15 99 1015.3
20260507024523 17 247 3.2 16.1 0.05 0.18 0.15 99 1015.3
20260507024023 17 207 1.6 16.1 0.08 0.18 0.15 99 1015.4
20260507023524 17 196 3.2 16.1 0.05 0.15 0.13 99 1015.3
20260507023023 17 197 3.2 25.7 0.05 0.15 0.13 99 1015.1
20260507022523 17 187 8.0 25.7 0.05 0.15 0.13 99 1014.7
20260507022023 17 189 4.8 24.1 0.05 0.15 0.13 99 1014.3
20260507021523 17 210 3.2 17.7 0.05 0.15 0.13 99 1014.2
20260507021023 17 208 8.0 17.7 0.05 0.15 0.13 99 1014.2
20260507020523 17 198 1.6 14.5 0.05 0.15 0.13 99 1014.2
20260507020023 17 200 3.2 14.5 0.03 0.13 0.10 99 1014.2
20260507015523 17 216 3.2 14.5 0.05 0.13 0.10 99 1014.4
20260507015023 17 218 1.6 19.3 0.05 0.13 0.10 99 1014.6
20260507014523 17 201 4.8 19.3 0.05 0.13 0.10 99 1014.4
20260507014023 16 193 4.8 19.3 0.03 0.10 0.08 99 1014.3
20260507013525 16 201 6.4 16.1 0.03 0.10 0.08 99 1014.1
20260507013023 16 196 4.8 14.5 0.03 0.10 0.08 99 1014.0
20260507012523 16 208 6.4 14.5 0.03 0.10 0.08 98 1014.1
20260507012023 16 202 8.0 16.1 0.03 0.10 0.08 98 1013.8
20260507011523 16 201 4.8 16.1 0.03 0.10 0.08 98 1013.8
20260507011024 16 189 6.4 14.5 0.03 0.10 0.08 98 1013.4
20260507010034 17 197 6.4 19.3 0.03 0.10 0.08 98 1013.8
20260507005536 16 202 6.4 14.5 0.00 0.08 0.05 97 1013.9
20260507005034 16 194 8.0 14.5 0.00 0.08 0.05 97 1014.0
20260507004534 17 202 4.8 16.1 0.00 0.08 0.05 97 1014.2
20260507004035 17 199 8.0 16.1 0.00 0.08 0.05 97 1014.0
20260507003534 17 202 6.4 17.7 0.00 0.08 0.05 96 1013.9
20260507003034 17 195 6.4 17.7 0.00 0.08 0.05 96 1014.0
20260507002534 17 198 4.8 14.5 0.00 0.08 0.05 96 1014.2
20260507002034 17 201 3.2 14.5 0.00 0.08 0.05 96 1014.1
20260507001534 17 202 6.4 16.1 0.00 0.08 0.05 95 1013.8
20260507001034 17 202 6.4 16.1 0.00 0.08 0.05 95 1013.9
20260507000535 17 202 6.4 14.5 0.00 0.08 0.05 95 1013.9
20260507000034 17 194 6.4 12.9 0.00 0.08 0.05 95 1013.7
20260506235534 17 192 6.4 14.5 0.00 0.08 0.05 95 1013.8
20260506235034 17 200 6.4 14.5 0.00 0.08 0.05 94 1013.9
20260506234535 17 196 4.8 11.3 0.00 0.08 0.05 94 1013.9
20260506233534 17 197 4.8 14.5 0.00 0.08 0.05 94 1013.8
20260506233033 17 197 3.2 17.7 0.00 0.08 0.05 94 1013.6
20260506232533 17 198 6.4 17.7 0.00 0.08 0.05 94 1013.2
20260506232034 17 195 9.7 17.7 0.00 0.08 0.05 94 1013.0
20260506231111 17 197 8.0 16.1 0.00 0.08 0.05 93 1013.5
20260506230612 17 202 6.4 16.1 0.00 0.08 0.05 93 1013.6
20260506230110 17 193 9.7 16.1 0.00 0.08 0.05 93 1013.3
20260506225611 17 191 8.0 14.5 0.00 0.08 0.05 93 1013.4
20260506225107 17 195 6.4 14.5 0.00 0.08 0.05 93 1013.5
20260506224439 17 200 1.6 12.9 0.00 0.08 0.05 92 1014.1
20260506223938 17 185 3.2 12.9 0.00 0.08 0.05 92 1014.1
20260506223438 17 197 1.6 12.9 0.00 0.08 0.05 92 1014.4
20260506222938 17 195 3.2 19.3 0.00 0.08 0.05 92 1014.6
20260506222438 17 192 6.4 22.5 0.00 0.08 0.05 92 1014.4
20260506221938 17 200 8.0 22.5 0.00 0.08 0.05 92 1014.4
20260506221438 17 199 8.0 17.7 0.00 0.08 0.05 92 1014.2
20260506220938 17 200 6.4 17.7 0.00 0.08 0.05 92 1014.2
20260506220438 17 197 6.4 12.9 0.00 0.08 0.05 92 1014.3
20260506215938 17 199 6.4 14.5 0.00 0.08 0.05 92 1014.0
20260506215438 17 195 4.8 14.5 0.00 0.08 0.05 92 1014.1
20260506214938 17 199 3.2 12.9 0.00 0.08 0.05 92 1014.1
20260506214438 17 193 1.6 11.3 0.00 0.08 0.05 91 1014.3
20260506213838 17 219 1.6 12.9 0.00 0.08 0.05 91 1014.3
20260506213337 17 0 0.0 8.0 0.00 0.08 0.05 92 1013.9
20260506212837 17 0 0.0 14.5 0.00 0.08 0.05 92 1013.8
20260506212337 17 196 4.8 16.1 0.00 0.08 0.05 91 1013.8
20260506211837 17 197 6.4 16.1 0.00 0.08 0.05 91 1013.4
20260506211337 17 199 4.8 14.5 0.00 0.08 0.05 91 1013.4
20260506210837 17 200 6.4 22.5 0.00 0.08 0.05 91 1013.2
20260506210337 17 199 4.8 24.1 0.00 0.08 0.05 91 1013.2
20260506205837 17 187 4.8 27.4 0.00 0.08 0.05 91 1013.5
20260506205337 17 196 8.0 27.4 0.00 0.08 0.05 91 1013.5
20260506204837 17 204 8.0 24.1 0.00 0.08 0.05 92 1013.7
20260506204337 17 201 8.0 24.1 0.00 0.08 0.05 92 1013.7
20260506203837 17 196 12.9 30.6 0.00 0.08 0.05 91 1013.7
20260506203337 17 192 12.9 30.6 0.00 0.08 0.05 91 1013.7
20260506202837 17 197 14.5 24.1 0.00 0.08 0.05 92 1013.8
20260506202115 17 202 9.7 25.7 0.00 0.08 0.05 92 1013.8
20260506201612 17 196 8.0 25.7 0.00 0.08 0.05 93 1014.0
20260506201112 17 193 11.3 25.7 0.00 0.08 0.05 92 1013.9
20260506200437 17 196 12.9 29.0 0.00 0.08 0.05 93 1014.0
20260506195938 17 199 8.0 35.4 0.00 0.08 0.05 93 1014.0
20260506195438 17 200 12.9 35.4 0.00 0.08 0.05 94 1014.0
20260506194937 17 198 8.0 25.7 0.00 0.08 0.05 94 1013.9
20260506194437 16 199 8.0 25.7 0.00 0.08 0.05 95 1013.8
20260506193937 16 198 9.7 19.3 0.00 0.08 0.05 95 1013.7
20260506193437 16 209 4.8 22.5 0.00 0.08 0.05 95 1013.7
20260506192937 16 200 6.4 38.6 0.00 0.08 0.05 95 1013.8
20260506192437 16 200 9.7 38.6 0.00 0.08 0.05 95 1014.1